Погода в Ейске

Погода в Ейске : погода сейчас, прогноз погоды и архив. Всё, что Вы хотите узнать о погоде в Ейске!

Хотите узнать прогноз погоды в Ейске? Тогда Вам сюда: Погода в Ейске

Поиск расширенной информации на нашем сайте:

Другие новости

Новости СМИ2

Главная страница сайта

Новости сайта

03.07.2017

Напоминаем, что на нашем специализированном сайте Метеоцентр.Азия вы можете получить высокодетализированные автоматические прогнозы погоды по пунктам России, СНГ и мира в авиационном формате (включающие направление и скорость ветра, видимость, явления погоды, количество и форму облачности, нижнюю и верхнюю границу облачности).


Погода в Ейске - сегодня

Время (UTC), дата Ветер
(°,м/с) 
Видим.   Явления Облачность Т
(°С)
Тd
(°С)
f(%) Тe
(°С)
Pmin
(гПа)
dP
(гПа)
Po
(мм)
O2
(г/м3)
Тmin Tmax R s Состояние
почвы
06 15.08.17 100 (В) 4{10}  10 км    8/4 600 м средняя, верхняя 
[Cu med, cong|Ac lent|Ci fib]
+26.9 +10.4 36 +28  1012.7  1.1  757  276  +23.2         
09 15.08.17 050 (СВ) 10 км    10/8 600 м кучево-дожд., средняя 
[Cb calv|Ac cast]
+27.4 +18 57 +41  1013.4  0.7  758  274           
12 15.08.17 060 (СВ) 5{10}  10 км    10/5 600 м средняя, верхняя 
[Cu hum|Ac lent|Ci fib]
+29.2 +16.9 47 +41  1012.3  -1  757  272           
15 15.08.17 050 (СВ) 10 км    10/8 600 м средняя 
[Cu hum|Ac lent]
+27.2 +17.7 56 +41  1012.9  0.5  758  274    +29.2       
18 15.08.17 070 (В) 5-10{10}  10 км    10/10 600 м 
[Sc diur, vesp]
+28.8 +8.7 28 +29  1013.6  0.7  758  275           
21 15.08.17 090 (В) 5{11}  10 км    3/0 средняя 
[Ac trans]
+26.7 +8.6 32 +27  1013.9  0.3  758  277           
00 16.08.17 070 (В) 5-10{10}  10 км    6/0 средняя 
[Ac trans]
+24.7 +7.2 33 +25  1014.2  0.3  759  279           
03 16.08.17 090 (В) 10 км    10/0 средняя, верхняя 
[Ac lent|Ci fib]
+23 +9.1 41 +23  1014.8  0.5  759  281  +23        сухая 
06 16.08.17 050 (СВ) 10 км    8/0 верхняя 
[Ci fib]
+24.8 +14.3 52 +32  1014.9  0.1  759  278  +23         
09 16.08.17 050 (СВ) 10 км    10/0 верхняя 
[Ci fib]
+25.5 +17.1 60 +38  1014.9  759  276           
12 16.08.17 050 (СВ) 10 км    10/0 верхняя 
[Ci fib]
+26.8 +17.8 58 +40  1014.1  -0.8  758  274           
15 16.08.17 090 (В) 6-11{11}  10 км    10/1 1000 м верхняя 
[Cu hum|Ci fib]
+31.5 +8.2 24 +32  1013.2  -0.8  758  272    +31.6       
18 16.08.17 070 (В) 3{11}  10 км    8/1 1000 м верхняя 
[Cu hum|Ci fib]
+28.1 +7.8 28 +28  1013.9  0.6  758  276           
21 16.08.17 080 (В) 5{12}  10 км    ясно 
+27.1 +7.4 29 +27  1013.8  0.1  758  277           
00 17.08.17 090 (В) 10 км    4/0 верхняя 
[Ci fib]
+24.7 +7.9 34 +25  1013.6  -0.2  758  279           
03 17.08.17 080 (В) 10 км    ясно 
+22.2 +9.8 45 +23  1014.1  0.5  758  281  +22.1        сухая 
06 17.08.17 070 (В) 10 км    ясно 
+26.6 +9.8 35 +27  1014.8  0.7  759  277           
09 17.08.17 050 (СВ) 6-11{11}  10 км    ясно 
+27.2 +16.6 52 +38  1014.1  -0.7  758  274           
12 17.08.17 050 (СВ) 6-12{14}  10 км    ясно 
+29.5 +15.1 42 +38  1012.8  -1.2  758  272           
15 17.08.17 050 (СВ) 5{12}  10 км    1/0 верхняя 
[Ci fib]
+27.7 +17.5 54 +41  1011.9  -0.9  757  273    +30.5       
18 17.08.17 060 (СВ) 4{11}  10 км    8/4 1000 м верхняя 
[Cu hum|Ci fib]
+26.9 +16.3 52 +38  1012.6  0.7  757  274           
21 17.08.17 070 (В) 10 км    ясно 
+26.9 +11.3 38 +30  1011.9  -0.7  757  276           
00 18.08.17 110 (В) 10 км    ясно 
+24.7 +11.9 45 +28  1013.1  1.1  758  278           
03 18.08.17 090 (В) 10 км    6/0 средняя, верхняя 
[Ac trans|Ci fib]
+23 +10.6 45 +25  1014.3  1.2  759  280  +23        сухая 
06 18.08.17 080 (В) 5{10}  10 км    8/3 600 м верхняя 
[Cu med, cong|Ci fib]
+26.3 +9.5 35 +27  1015.8  1.5  760  278  +22.9         
Время (UTC), дата Ветер
(°,м/с) 
Видим.   Явления Облачность Т
(°С)
Тd
(°С)
f(%) Тe
(°С)
Pmin
(гПа)
dP
(гПа)
Po
(мм)
O2
(г/м3)
Тmin Tmax R s Состояние
почвы

Для получения пояснительной информации подведите курсор к названию столбца.

ПОГОДА в Ейске - архив

Всё, что Вы хотите узнать о погоде в Ейске - удобно и подробно!

Выберите нужную дату (начиная с 1 января 2015* года) и нажмите кнопку "Найти".
Будут отображены архивные сводки погоды по пункту Ейск, начиная с указанной даты.


Отображать данные в формате CSV (для использования в таблицах Excel)


Внимание! Наш архив погоды предназначен исключительно для личного некоммерческого использования в познавательных целях. Если Вам необходимы официальные справки о состоянии погоды (для производственных, юридических, коммерческих и т.п. целей), обращайтесь в органы Росгидромета.

*Примечание: данная дата относится к архиву по метеостанциям СССР (Россия, СНГ, Балтия).
Архив по метеостанциям Зарубежной Европы и Азии (кроме Китая) хранится 10 дней, по другим регионам земного шара (Китай, Африка, Америка, Австралия, Океания) - 1 день.

Ейск - район местоположения метеостанции


Название, широта, долгота, высота метеостанции:
Ейск 46.8°ш. 38.3°д. 3 м над ур. моря [Российская Федерация]

Дополнительная информация

В oтличие oт бoльшинства пoгoдных сайтoв мы публикуем пoдрoбную метеoинфoрмацию в детальнoм прoфессиoнальнoм фoрмате.

Характеристики температуры и влажнoсти вoздуха измеряются на высoте 2 м в тени вдали oт зданий и деревьев.
Скoрoсть ветра измеряется на высoте 10 м (на урoвне рoста челoвека скoрoсть ветра ниже в 1.5-2 раза). Если метеoстанция нахoдится в гoрoде или в лесу, тo скoрoсть ветра занижена на 2-4 м/с пo сравнению с oткрытым местoм. Скoрoсть ветра над акватoриями крупных рек и oзёр, а также на вершинах хoлмoв на 2-5 м/с выше, чем в oбычных услoвиях.
Атмoсфернoе давление в разных тoчках местнoсти мoжет значительнo oтличаться oт давления на метеoстанции, в зависимoсти oт услoвий рельефа (при пoдъёме на 10 м давление пoнижается примернo на 1 мм рт.ст.).